DAL8 RJTT-KLAX

Flight info

Callsign DAL8
Flight time 9h 59m
Altitude 35000
Route OPPAR UTIBO Y803 POROT Y809 AVBET OTR11 LEPKI 40N160E 41N170E 41N180E 40N170W 39N160W 40N150W 40N140W 39N130W DCT DACEM DCT PAINT DCT PIRAT DCT BURGL IRNMN2
Aircraft A359/H-SDE2E3GHIJ3J4J5LM1ORWXY/LB1D1

Departure

Time 2026-05-04 05:00
Airport Tokyo Haneda International Airport (RJTT)

Arrival

Time 2026-05-04 15:00
Airport Los Angeles International Airport (KLAX)
Time Latitude Longitude Altitude Speed Heading
2026-05-04 04:58 35.56515 139.78340 48 ft 0 kts 224°
2026-05-04 04:59 35.56507 139.78334 48 ft 7 kts 203°
2026-05-04 04:59 35.56473 139.78439 48 ft 24 kts 67°
2026-05-04 04:59 35.56543 139.78645 48 ft 24 kts 108°
2026-05-04 04:59 35.56277 139.78874 48 ft 80 kts 150°
2026-05-04 05:00 35.55618 139.79338 49 ft 136 kts 151°
2026-05-04 05:00 35.54680 139.79979 312 ft 158 kts 152°
2026-05-04 05:00 35.52718 139.81320 1121 ft 177 kts 151°
2026-05-04 05:01 35.51617 139.82121 1608 ft 192 kts 146°
2026-05-04 05:01 35.50581 139.83243 2125 ft 208 kts 132°
2026-05-04 05:01 35.49615 139.84631 2684 ft 225 kts 130°
2026-05-04 05:01 35.48567 139.86144 3273 ft 241 kts 131°
2026-05-04 05:02 35.47416 139.87736 3876 ft 258 kts 132°
2026-05-04 05:02 35.46295 139.89496 4607 ft 268 kts 115°
2026-05-04 05:02 35.45907 139.91701 5474 ft 272 kts 85°
2026-05-04 05:02 35.46464 139.93880 6350 ft 274 kts 55°
2026-05-04 05:03 35.47833 139.95448 7174 ft 277 kts 26°
2026-05-04 05:03 35.49679 139.95981 7965 ft 280 kts 356°
2026-05-04 05:04 35.53251 139.91170 10134 ft 289 kts 264°
2026-05-04 05:04 35.52607 139.88825 10635 ft 299 kts 236°
2026-05-04 05:04 35.51349 139.86739 11029 ft 313 kts 232°
2026-05-04 05:06 35.38272 139.73621 13571 ft 399 kts 178°
2026-05-04 05:06 35.35555 139.74008 14144 ft 401 kts 168°
2026-05-04 05:06 35.32856 139.74916 14665 ft 405 kts 162°
2026-05-04 05:07 35.30160 139.76003 15167 ft 408 kts 161°
2026-05-04 05:07 35.27475 139.77090 15644 ft 411 kts 162°
2026-05-04 05:07 35.24777 139.78160 16118 ft 414 kts 162°
2026-05-04 05:09 35.02297 139.86775 19600 ft 435 kts 156°
2026-05-04 05:09 34.99763 139.88684 19931 ft 438 kts 138°
2026-05-04 05:10 34.97810 139.91524 20292 ft 440 kts 120°
2026-05-04 05:10 34.96680 139.94968 20643 ft 442 kts 102°
2026-05-04 05:10 34.96488 139.98724 20985 ft 445 kts 83°
2026-05-04 05:10 34.97089 140.02416 21375 ft 446 kts 76°
2026-05-04 05:11 34.97826 140.06065 21746 ft 448 kts 76°
2026-05-04 05:11 34.98586 140.09787 22090 ft 451 kts 76°
2026-05-04 05:11 34.99327 140.13477 22431 ft 453 kts 76°
2026-05-04 05:11 35.00066 140.17218 22771 ft 455 kts 76°
2026-05-04 05:12 35.00800 140.20981 23105 ft 458 kts 76°
2026-05-04 05:12 35.01531 140.24760 23430 ft 460 kts 76°
2026-05-04 05:12 35.02258 140.28537 23744 ft 462 kts 76°
2026-05-04 05:12 35.02988 140.32353 24052 ft 464 kts 76°
2026-05-04 05:13 35.03717 140.36173 24350 ft 466 kts 76°
2026-05-04 05:13 35.04454 140.40047 24644 ft 468 kts 77°
2026-05-04 05:13 35.05192 140.43932 24929 ft 470 kts 77°
2026-05-04 05:13 35.05925 140.47800 25205 ft 472 kts 76°
2026-05-04 05:14 35.06673 140.51704 25473 ft 474 kts 76°
2026-05-04 05:14 35.07530 140.55565 25730 ft 476 kts 73°
2026-05-04 05:14 35.08568 140.59425 25982 ft 477 kts 70°
2026-05-04 05:14 35.09752 140.63174 26224 ft 479 kts 68°
2026-05-04 05:15 35.11015 140.66963 26469 ft 481 kts 68°
2026-05-04 05:15 35.12279 140.70737 26702 ft 482 kts 68°
2026-05-04 05:15 35.13542 140.74510 26926 ft 484 kts 68°
2026-05-04 05:15 35.14811 140.78308 27205 ft 484 kts 68°
2026-05-04 05:16 35.16074 140.82097 27533 ft 483 kts 68°
2026-05-04 05:16 35.17330 140.85875 27852 ft 482 kts 68°
2026-05-04 05:16 35.18580 140.89639 28152 ft 481 kts 68°
2026-05-04 05:16 35.19840 140.93443 28440 ft 481 kts 68°
2026-05-04 05:17 35.21093 140.97229 28716 ft 480 kts 68°
2026-05-04 05:17 35.22343 141.01010 28990 ft 480 kts 68°
2026-05-04 05:17 35.23589 141.04784 29261 ft 479 kts 68°
2026-05-04 05:17 35.24831 141.08551 29525 ft 479 kts 68°
2026-05-04 05:18 35.26071 141.12318 29775 ft 478 kts 68°
2026-05-04 05:18 35.27294 141.16036 30010 ft 478 kts 68°
2026-05-04 05:18 35.28534 141.19809 30247 ft 478 kts 68°
2026-05-04 05:18 35.29770 141.23576 30477 ft 477 kts 68°
2026-05-04 05:19 35.31005 141.27345 30704 ft 477 kts 68°
2026-05-04 05:19 35.32239 141.31114 30924 ft 477 kts 68°
2026-05-04 05:19 35.33454 141.34833 31134 ft 476 kts 68°
2026-05-04 05:19 35.34686 141.38605 31343 ft 476 kts 68°
2026-05-04 05:20 35.35905 141.42342 31547 ft 475 kts 68°
2026-05-04 05:20 35.37124 141.46083 31747 ft 475 kts 68°
2026-05-04 05:20 35.38354 141.49866 31943 ft 475 kts 68°
2026-05-04 05:20 35.39560 141.53578 32121 ft 474 kts 68°
2026-05-04 05:21 35.40786 141.57353 32296 ft 474 kts 68°
2026-05-04 05:21 35.42001 141.61099 32472 ft 474 kts 68°
2026-05-04 05:21 35.43201 141.64807 32645 ft 473 kts 68°
2026-05-04 05:21 35.44422 141.68591 32817 ft 473 kts 69°
2026-05-04 05:22 35.45626 141.72337 32974 ft 473 kts 69°
2026-05-04 05:22 35.46830 141.76083 33121 ft 473 kts 69°
2026-05-04 05:22 35.48022 141.79791 33253 ft 473 kts 69°
2026-05-04 05:22 35.49232 141.83557 33372 ft 474 kts 69°
2026-05-04 05:23 35.50427 141.87280 33483 ft 474 kts 69°
2026-05-04 05:23 35.51640 141.91060 33592 ft 475 kts 69°
2026-05-04 05:23 35.54048 141.98578 33793 ft 476 kts 69°
2026-05-04 05:24 35.55257 142.02357 33894 ft 476 kts 69°
2026-05-04 05:24 35.56471 142.06157 33994 ft 477 kts 69°
2026-05-04 05:24 35.58875 142.13696 34184 ft 478 kts 69°
2026-05-04 05:25 35.61292 142.21300 34360 ft 479 kts 69°
2026-05-04 05:25 35.63700 142.28889 34523 ft 479 kts 69°
2026-05-04 05:26 35.66114 142.36523 34678 ft 480 kts 69°
2026-05-04 05:26 35.68525 142.44162 34824 ft 481 kts 69°
2026-05-04 05:28 35.78162 142.74933 35009 ft 483 kts 69°
2026-05-04 05:29 35.80561 142.82649 35009 ft 483 kts 69°
2026-05-04 05:29 35.82947 142.90334 35009 ft 483 kts 69°
2026-05-04 05:31 35.92212 143.21352 35008 ft 484 kts 75°
2026-05-04 05:32 35.93635 143.29446 35008 ft 484 kts 81°
2026-05-04 05:33 35.94946 143.41809 35008 ft 484 kts 83°
2026-05-04 05:33 35.95781 143.49992 35008 ft 485 kts 82°
2026-05-04 05:34 35.96622 143.58234 35008 ft 485 kts 82°
2026-05-04 05:34 35.97456 143.66476 35008 ft 485 kts 83°
2026-05-04 05:35 35.98280 143.74705 35009 ft 485 kts 83°
2026-05-04 05:35 35.99101 143.82936 35009 ft 485 kts 83°
2026-05-04 05:36 35.99923 143.91226 35009 ft 486 kts 83°
2026-05-04 05:36 36.00737 143.99486 35009 ft 486 kts 83°
2026-05-04 05:37 36.01544 144.07750 35009 ft 486 kts 83°
2026-05-04 05:37 36.02339 144.15973 35009 ft 486 kts 83°
2026-05-04 05:38 36.03528 144.28398 35008 ft 486 kts 83°
2026-05-04 05:38 36.04316 144.36684 35008 ft 486 kts 83°
2026-05-04 05:39 36.05481 144.49057 35008 ft 486 kts 83°
2026-05-04 05:40 36.06641 144.61502 35008 ft 486 kts 83°
2026-05-04 05:40 36.07399 144.69730 35009 ft 486 kts 84°
2026-05-04 05:41 36.08155 144.78008 35009 ft 486 kts 84°
2026-05-04 05:41 36.08909 144.86314 35009 ft 486 kts 84°
2026-05-04 05:42 36.09657 144.94614 35009 ft 486 kts 84°
2026-05-04 05:42 36.10404 145.02837 35009 ft 486 kts 83°
2026-05-04 05:43 36.11167 145.11127 35009 ft 486 kts 83°
2026-05-04 05:45 36.14117 145.44261 35008 ft 486 kts 81°
2026-05-04 05:47 36.20539 145.76656 35009 ft 486 kts 76°
2026-05-04 05:47 36.22216 145.84757 35009 ft 486 kts 76°
2026-05-04 05:48 36.23883 145.92836 35009 ft 486 kts 76°
2026-05-04 05:48 36.25544 146.00919 35009 ft 486 kts 76°
2026-05-04 05:49 36.27207 146.09035 35009 ft 486 kts 76°
2026-05-04 05:49 36.28860 146.17133 35009 ft 486 kts 76°
2026-05-04 05:51 36.35411 146.49528 35009 ft 486 kts 76°
2026-05-04 05:52 36.37045 146.57689 35009 ft 486 kts 76°
2026-05-04 05:52 36.38658 146.65773 35009 ft 486 kts 76°
2026-05-04 05:54 36.45068 146.98270 35009 ft 486 kts 76°
2026-05-04 05:55 36.46661 147.06409 35009 ft 486 kts 76°
2026-05-04 05:55 36.48257 147.14590 35009 ft 486 kts 76°
2026-05-04 05:56 36.49830 147.22691 35009 ft 486 kts 76°
2026-05-04 05:56 36.51410 147.30861 35009 ft 486 kts 76°
2026-05-04 05:57 36.52986 147.39035 35009 ft 486 kts 76°
2026-05-04 05:57 36.54547 147.47171 35009 ft 486 kts 76°
2026-05-04 05:58 36.56107 147.55328 35009 ft 486 kts 76°
2026-05-04 05:58 36.57657 147.63469 35009 ft 486 kts 76°
2026-05-04 05:59 36.59200 147.71625 35009 ft 486 kts 77°
2026-05-04 05:59 36.60741 147.79803 35009 ft 486 kts 77°
2026-05-04 06:00 36.62277 147.87982 35009 ft 486 kts 77°
2026-05-04 06:00 36.63803 147.96129 35009 ft 486 kts 77°
2026-05-04 06:01 36.65335 148.04340 35009 ft 486 kts 77°
2026-05-04 06:03 36.71379 148.37054 35009 ft 486 kts 77°
2026-05-04 06:05 36.78068 148.73930 35009 ft 486 kts 77°
2026-05-04 06:06 36.79544 148.82170 35009 ft 486 kts 77°
2026-05-04 06:06 36.81005 148.90358 35009 ft 486 kts 77°
2026-05-04 06:07 36.82474 148.98613 35009 ft 486 kts 77°
2026-05-04 06:07 36.83926 149.06813 35009 ft 486 kts 77°
2026-05-04 06:08 36.85372 149.15007 35009 ft 486 kts 77°
2026-05-04 06:08 36.86824 149.23273 35008 ft 486 kts 77°
2026-05-04 06:09 36.88249 149.31422 35003 ft 478 kts 77°
2026-05-04 06:11 36.93776 149.63386 35008 ft 472 kts 77°
2026-05-04 06:13 36.99281 149.95383 35009 ft 472 kts 75°
2026-05-04 06:14 37.07758 150.21941 35009 ft 472 kts 66°
2026-05-04 06:15 37.10410 150.29423 35008 ft 472 kts 66°
2026-05-04 06:15 37.13076 150.36896 35009 ft 472 kts 66°
2026-05-04 06:16 37.15747 150.44431 35009 ft 472 kts 66°
2026-05-04 06:16 37.18383 150.51926 35009 ft 472 kts 66°
2026-05-04 06:17 37.20996 150.59392 35009 ft 472 kts 66°
2026-05-04 06:17 37.23630 150.66939 35009 ft 472 kts 66°
2026-05-04 06:18 37.26236 150.74460 35009 ft 472 kts 66°
2026-05-04 06:20 37.36641 151.04575 35009 ft 472 kts 66°
2026-05-04 06:21 37.43123 151.23474 35009 ft 472 kts 66°
2026-05-04 06:22 37.45713 151.31059 35009 ft 472 kts 66°
2026-05-04 06:25 37.63629 151.84123 35009 ft 472 kts 67°
2026-05-04 06:26 37.66166 151.91715 35009 ft 472 kts 67°
2026-05-04 06:26 37.68710 151.99344 35009 ft 472 kts 67°
2026-05-04 06:27 37.75025 152.18359 35009 ft 472 kts 67°
2026-05-04 06:28 37.77552 152.26004 35009 ft 472 kts 67°
2026-05-04 06:28 37.80056 152.33598 35008 ft 472 kts 67°
2026-05-04 06:29 37.82569 152.41242 35008 ft 472 kts 67°
2026-05-04 06:29 37.85082 152.48903 35008 ft 472 kts 67°
2026-05-04 06:30 37.87576 152.56529 35008 ft 472 kts 67°
2026-05-04 06:30 37.90078 152.64197 35008 ft 472 kts 67°
2026-05-04 06:31 37.92561 152.71849 35009 ft 472 kts 68°
2026-05-04 06:31 37.95047 152.79538 35009 ft 472 kts 68°
2026-05-04 06:33 38.04938 153.10239 35009 ft 472 kts 68°
2026-05-04 06:34 38.07391 153.17900 35009 ft 472 kts 68°
2026-05-04 06:34 38.09843 153.25583 35008 ft 472 kts 68°
2026-05-04 06:36 38.19681 153.56410 35009 ft 472 kts 68°
2026-05-04 06:37 38.22107 153.64110 35009 ft 472 kts 68°
2026-05-04 06:37 38.24531 153.71849 35009 ft 472 kts 68°
2026-05-04 06:38 38.26934 153.79546 35009 ft 472 kts 68°
2026-05-04 06:40 38.36561 154.10509 35009 ft 472 kts 68°
2026-05-04 06:40 38.38968 154.18301 35009 ft 472 kts 68°
2026-05-04 06:41 38.41352 154.26039 35009 ft 472 kts 68°
2026-05-04 06:41 38.43734 154.33795 35009 ft 472 kts 68°
2026-05-04 06:42 38.46111 154.41553 35009 ft 472 kts 68°
2026-05-04 06:44 38.55586 154.72731 35009 ft 472 kts 69°
2026-05-04 06:44 38.57924 154.80493 35009 ft 472 kts 69°
2026-05-04 06:45 38.60267 154.88284 35009 ft 472 kts 69°
2026-05-04 06:45 38.62619 154.96120 35009 ft 472 kts 69°
2026-05-04 06:46 38.64964 155.03950 35009 ft 472 kts 69°
2026-05-04 06:46 38.67287 155.11734 35009 ft 472 kts 69°
2026-05-04 06:48 38.76565 155.43033 35008 ft 472 kts 69°
2026-05-04 06:50 38.85760 155.74448 35009 ft 472 kts 70°
2026-05-04 06:51 38.88045 155.82323 35009 ft 472 kts 70°
2026-05-04 06:51 38.90315 155.90155 35009 ft 472 kts 70°
2026-05-04 06:52 38.92596 155.98048 35009 ft 472 kts 70°
2026-05-04 06:52 38.94860 156.05904 35009 ft 472 kts 70°
2026-05-04 06:53 38.97133 156.13811 35009 ft 472 kts 70°
2026-05-04 06:53 38.99389 156.21686 35009 ft 472 kts 70°
2026-05-04 06:54 39.01642 156.29570 35008 ft 472 kts 70°
2026-05-04 06:54 39.03901 156.37503 35008 ft 472 kts 70°
2026-05-04 06:55 39.06141 156.45389 35008 ft 472 kts 70°
2026-05-04 06:55 39.08385 156.53316 35008 ft 472 kts 70°
2026-05-04 06:57 39.17326 156.84979 35009 ft 472 kts 70°
2026-05-04 06:58 39.19528 156.92874 35009 ft 472 kts 70°
2026-05-04 06:58 39.21741 157.00833 35009 ft 472 kts 70°
2026-05-04 06:59 39.23946 157.08787 35009 ft 472 kts 70°
2026-05-04 06:59 39.26128 157.16685 35009 ft 472 kts 70°
2026-05-04 07:01 39.34863 157.48546 35009 ft 472 kts 70°
2026-05-04 07:02 39.37026 157.56496 35009 ft 472 kts 70°
2026-05-04 07:02 39.39191 157.64481 35009 ft 472 kts 70°
2026-05-04 07:03 39.41345 157.72472 35009 ft 472 kts 71°
2026-05-04 07:03 39.43497 157.80479 35009 ft 472 kts 71°
2026-05-04 07:04 39.45633 157.88441 35009 ft 472 kts 71°
2026-05-04 07:04 39.47774 157.96439 35009 ft 472 kts 71°
2026-05-04 07:05 39.49910 158.04439 35009 ft 472 kts 71°
2026-05-04 07:05 39.52043 158.12459 35009 ft 472 kts 71°
2026-05-04 07:06 39.55224 158.24458 35009 ft 472 kts 71°
2026-05-04 07:07 39.57340 158.32477 35009 ft 472 kts 71°
2026-05-04 07:09 39.65747 158.64584 35008 ft 472 kts 71°
2026-05-04 07:09 39.67843 158.72675 35009 ft 471 kts 71°
2026-05-04 07:10 39.69918 158.80710 35009 ft 472 kts 71°
2026-05-04 07:12 39.78190 159.12941 35009 ft 471 kts 71°
2026-05-04 07:12 39.80246 159.21014 35009 ft 471 kts 71°
2026-05-04 07:13 39.82299 159.29102 35008 ft 471 kts 71°
2026-05-04 07:13 39.84345 159.37187 35008 ft 472 kts 71°
2026-05-04 07:14 39.89418 159.57359 35008 ft 472 kts 71°
2026-05-04 07:15 39.91449 159.65486 35008 ft 472 kts 72°
2026-05-04 07:15 39.93458 159.73572 35009 ft 472 kts 72°
2026-05-04 07:16 39.95470 159.81685 35009 ft 472 kts 72°
2026-05-04 07:16 39.97481 159.89812 35009 ft 472 kts 72°
2026-05-04 07:17 39.99449 159.97966 35008 ft 472 kts 74°
2026-05-04 07:17 40.00912 160.06262 35009 ft 472 kts 79°
2026-05-04 07:18 40.02120 160.14673 35008 ft 472 kts 79°
2026-05-04 07:18 40.03308 160.23036 35008 ft 472 kts 79°
2026-05-04 07:19 40.04503 160.31457 35008 ft 472 kts 79°
2026-05-04 07:19 40.05687 160.39818 35008 ft 472 kts 79°
2026-05-04 07:20 40.06874 160.48235 35008 ft 472 kts 79°
2026-05-04 07:20 40.08049 160.56616 35008 ft 472 kts 79°
2026-05-04 07:22 40.12748 160.90254 35009 ft 472 kts 80°
2026-05-04 07:23 40.13905 160.98689 35009 ft 472 kts 80°
2026-05-04 07:23 40.15042 161.07059 35009 ft 472 kts 80°
2026-05-04 07:24 40.16180 161.15491 35009 ft 472 kts 80°
2026-05-04 07:24 40.17308 161.23892 35009 ft 472 kts 80°
2026-05-04 07:26 40.21767 161.57631 35009 ft 472 kts 80°
2026-05-04 07:27 40.22871 161.66097 35009 ft 473 kts 81°
2026-05-04 07:27 40.23966 161.74585 35008 ft 474 kts 81°
2026-05-04 07:28 40.25055 161.83055 35007 ft 476 kts 81°
2026-05-04 07:28 40.26145 161.91577 35007 ft 477 kts 81°
2026-05-04 07:29 40.27236 162.00159 35005 ft 477 kts 81°
2026-05-04 07:29 40.28316 162.08699 35008 ft 481 kts 81°
2026-05-04 07:30 40.29411 162.17398 35009 ft 485 kts 81°
2026-05-04 07:30 40.30497 162.26083 35009 ft 486 kts 81°
2026-05-04 07:31 40.31577 162.34786 35009 ft 486 kts 81°
2026-05-04 07:33 40.35833 162.69659 35009 ft 486 kts 81°
2026-05-04 07:33 40.36881 162.78410 35009 ft 486 kts 81°
2026-05-04 07:34 40.37921 162.87149 35009 ft 486 kts 81°
2026-05-04 07:34 40.38954 162.95868 35009 ft 486 kts 81°
2026-05-04 07:35 40.39988 163.04648 35009 ft 486 kts 81°
2026-05-04 07:35 40.41006 163.13362 35009 ft 486 kts 81°
2026-05-04 07:36 40.42026 163.22142 35009 ft 486 kts 81°
2026-05-04 07:38 40.46021 163.57130 35009 ft 486 kts 81°
2026-05-04 07:38 40.47003 163.65883 35009 ft 486 kts 82°
2026-05-04 07:39 40.47974 163.74625 35009 ft 486 kts 82°
2026-05-04 07:39 40.48946 163.83440 35009 ft 486 kts 82°
2026-05-04 07:40 40.49907 163.92195 35009 ft 486 kts 82°
2026-05-04 07:40 40.50863 164.00966 35009 ft 486 kts 82°
2026-05-04 07:41 40.51808 164.09694 35009 ft 486 kts 82°
2026-05-04 07:41 40.52756 164.18510 35009 ft 486 kts 82°
2026-05-04 07:42 40.53688 164.27252 35009 ft 486 kts 82°
2026-05-04 07:42 40.54622 164.36066 35009 ft 486 kts 82°
2026-05-04 07:43 40.55541 164.44810 35009 ft 486 kts 82°
2026-05-04 07:43 40.56463 164.53644 35009 ft 486 kts 82°
2026-05-04 07:44 40.57370 164.62405 35009 ft 486 kts 82°
2026-05-04 07:44 40.58275 164.71228 35009 ft 486 kts 82°
2026-05-04 07:45 40.59168 164.80008 35009 ft 486 kts 82°
2026-05-04 07:45 40.60055 164.88789 35009 ft 486 kts 82°
2026-05-04 07:46 40.60936 164.97571 35009 ft 486 kts 82°
2026-05-04 07:46 40.61811 165.06354 35009 ft 486 kts 82°
2026-05-04 07:47 40.62684 165.15187 35009 ft 486 kts 82°
2026-05-04 07:49 40.66093 165.50383 35008 ft 486 kts 82°
2026-05-04 07:49 40.66930 165.59196 35008 ft 486 kts 82°
2026-05-04 07:50 40.67760 165.68024 35009 ft 486 kts 83°
2026-05-04 07:50 40.68579 165.76829 35009 ft 486 kts 83°
2026-05-04 07:51 40.69392 165.85622 35009 ft 486 kts 83°
2026-05-04 07:51 40.70203 165.94472 35009 ft 486 kts 83°
2026-05-04 07:52 40.71007 166.03301 35009 ft 486 kts 83°
2026-05-04 07:52 40.71802 166.12120 35009 ft 486 kts 83°
2026-05-04 07:54 40.74913 166.47368 35008 ft 486 kts 83°
2026-05-04 07:55 40.75678 166.56230 35008 ft 486 kts 83°
2026-05-04 07:55 40.76431 166.65041 35008 ft 486 kts 84°
2026-05-04 07:56 40.77176 166.73853 35009 ft 486 kts 84°
2026-05-04 07:56 40.77918 166.82706 35009 ft 486 kts 84°
2026-05-04 07:57 40.78650 166.91515 35009 ft 486 kts 84°
2026-05-04 07:57 40.79379 167.00366 35009 ft 486 kts 84°
2026-05-04 07:58 40.80101 167.09215 35009 ft 486 kts 84°
2026-05-04 07:58 40.80816 167.18065 35009 ft 486 kts 84°
2026-05-04 07:59 40.81525 167.26914 35009 ft 486 kts 84°
2026-05-04 07:59 40.82223 167.35721 35008 ft 486 kts 84°
2026-05-04 08:00 40.82918 167.44577 35008 ft 486 kts 84°
2026-05-04 08:02 40.85628 167.80013 35009 ft 486 kts 84°
2026-05-04 08:02 40.86286 167.88856 35009 ft 486 kts 84°
2026-05-04 08:03 40.86941 167.97731 35009 ft 486 kts 84°
2026-05-04 08:03 40.87590 168.06610 35009 ft 486 kts 84°
2026-05-04 08:04 40.88227 168.15431 35009 ft 486 kts 84°
2026-05-04 08:04 40.88862 168.24310 35009 ft 486 kts 84°
2026-05-04 08:05 40.89490 168.33191 35008 ft 486 kts 84°
2026-05-04 08:05 40.90110 168.42067 35008 ft 486 kts 84°
2026-05-04 08:06 40.90724 168.50946 35008 ft 486 kts 84°
2026-05-04 08:06 40.91331 168.59822 35008 ft 486 kts 84°
2026-05-04 08:08 40.93684 168.95296 35009 ft 486 kts 85°
2026-05-04 08:11 40.96207 169.35283 35008 ft 486 kts 85°
2026-05-04 08:11 40.97015 169.48585 35008 ft 486 kts 85°
2026-05-04 08:12 40.97547 169.57475 35008 ft 486 kts 85°
2026-05-04 08:12 40.98071 169.66351 35008 ft 486 kts 85°
2026-05-04 08:13 40.98591 169.75290 35009 ft 486 kts 85°
2026-05-04 08:13 40.99101 169.84158 35009 ft 486 kts 85°
2026-05-04 08:14 40.99608 169.93092 35009 ft 486 kts 85°
2026-05-04 08:16 41.01200 170.28690 35008 ft 486 kts 86°
2026-05-04 08:16 41.01558 170.37598 35008 ft 486 kts 86°
2026-05-04 08:17 41.01911 170.46516 35008 ft 486 kts 86°
2026-05-04 08:17 41.02257 170.55426 35008 ft 486 kts 86°
2026-05-04 08:19 41.03573 170.91078 35009 ft 486 kts 87°
2026-05-04 08:20 41.03886 171.00018 35009 ft 486 kts 87°
2026-05-04 08:20 41.04190 171.08902 35009 ft 486 kts 87°
2026-05-04 08:21 41.04489 171.17836 35009 ft 486 kts 87°
2026-05-04 08:21 41.04781 171.26767 35008 ft 486 kts 87°
2026-05-04 08:22 41.05065 171.35704 35008 ft 486 kts 87°
2026-05-04 08:24 41.06135 171.71396 35009 ft 486 kts 88°
2026-05-04 08:24 41.06385 171.80339 35009 ft 486 kts 88°
2026-05-04 08:25 41.06628 171.89215 35009 ft 486 kts 88°
2026-05-04 08:25 41.06864 171.98137 35009 ft 486 kts 88°
2026-05-04 08:27 41.07742 172.33882 35008 ft 486 kts 88°
2026-05-04 08:28 41.07943 172.42781 35008 ft 486 kts 88°
2026-05-04 08:28 41.08138 172.51718 35008 ft 486 kts 88°
2026-05-04 08:29 41.08326 172.60660 35008 ft 486 kts 88°
2026-05-04 08:31 41.09011 172.96397 35009 ft 486 kts 89°
2026-05-04 08:33 41.09584 173.32158 35008 ft 486 kts 89°
2026-05-04 08:35 41.10055 173.67891 35008 ft 486 kts 89°
2026-05-04 08:35 41.10185 173.76825 35008 ft 486 kts 89°
2026-05-04 08:37 41.10501 174.08119 35009 ft 486 kts 89°
2026-05-04 08:38 41.10568 174.17040 35009 ft 486 kts 89°
2026-05-04 08:38 41.10629 174.26025 35009 ft 486 kts 89°
2026-05-04 08:40 41.10803 174.61745 35009 ft 486 kts 89°
2026-05-04 08:41 41.10829 174.70692 35009 ft 486 kts 90°
2026-05-04 08:41 41.10847 174.79665 35009 ft 486 kts 90°
2026-05-04 08:42 41.10860 174.88600 35009 ft 486 kts 90°
2026-05-04 08:42 41.10865 174.97531 35009 ft 486 kts 90°
2026-05-04 08:43 41.10863 175.06457 35009 ft 486 kts 90°
2026-05-04 08:43 41.10855 175.15453 35009 ft 486 kts 90°
2026-05-04 08:44 41.10840 175.24391 35009 ft 486 kts 90°
2026-05-04 08:46 41.10709 175.60107 35009 ft 486 kts 90°
2026-05-04 08:46 41.10659 175.69000 35009 ft 486 kts 90°
2026-05-04 08:47 41.10602 175.77991 35009 ft 486 kts 90°
2026-05-04 08:47 41.10538 175.86885 35009 ft 486 kts 90°
2026-05-04 08:48 41.10468 175.95821 35009 ft 486 kts 90°
2026-05-04 08:48 41.10390 176.04746 35009 ft 486 kts 90°
2026-05-04 08:49 41.10306 176.13667 35009 ft 486 kts 90°
2026-05-04 08:50 41.09956 176.44954 35009 ft 486 kts 90°
2026-05-04 08:51 41.09841 176.53886 35009 ft 486 kts 90°
2026-05-04 08:51 41.09719 176.62825 35010 ft 486 kts 90°
2026-05-04 08:52 41.09591 176.71693 35009 ft 486 kts 91°
2026-05-04 08:52 41.09454 176.80682 35008 ft 486 kts 91°
2026-05-04 08:54 41.08841 177.16391 35009 ft 486 kts 91°
2026-05-04 08:55 41.08671 177.25264 35009 ft 486 kts 91°
2026-05-04 08:55 41.08493 177.34206 35009 ft 486 kts 91°
2026-05-04 09:01 41.06215 178.27902 35009 ft 486 kts 92°
2026-05-04 09:01 41.05959 178.36821 35009 ft 486 kts 92°
2026-05-04 09:02 41.05694 178.45775 35009 ft 486 kts 92°
2026-05-04 09:02 41.05423 178.54710 35009 ft 486 kts 92°
2026-05-04 09:03 41.05146 178.63629 35010 ft 486 kts 92°
2026-05-04 09:03 41.04863 178.72507 35009 ft 486 kts 92°
2026-05-04 09:04 41.04572 178.81424 35008 ft 486 kts 92°
2026-05-04 09:04 41.04274 178.90346 35009 ft 486 kts 92°
2026-05-04 09:05 41.03969 178.99274 35009 ft 486 kts 92°
2026-05-04 09:05 41.03658 179.08166 35009 ft 486 kts 92°
2026-05-04 09:06 41.03339 179.17094 35009 ft 486 kts 92°
2026-05-04 09:08 41.01992 179.52766 35009 ft 486 kts 92°
2026-05-04 09:08 41.01637 179.61693 35010 ft 486 kts 92°
2026-05-04 09:09 41.01278 179.70561 35009 ft 486 kts 93°
2026-05-04 09:09 41.00909 179.79460 35008 ft 486 kts 93°
2026-05-04 09:10 41.00529 179.88425 35009 ft 486 kts 93°
2026-05-04 09:10 41.00144 179.97321 35009 ft 486 kts 93°
2026-05-04 09:11 40.99711 -179.93768 35009 ft 486 kts 94°
2026-05-04 09:11 40.99209 -179.84894 35009 ft 486 kts 94°
2026-05-04 09:12 40.98695 -179.76018 35009 ft 486 kts 94°
2026-05-04 09:14 40.96583 -179.40443 35008 ft 486 kts 95°
2026-05-04 09:14 40.96038 -179.31529 35008 ft 486 kts 95°
2026-05-04 09:15 40.95488 -179.22675 35008 ft 486 kts 95°
2026-05-04 09:15 40.94931 -179.13797 35008 ft 486 kts 95°
2026-05-04 09:17 40.92335 -178.73850 35010 ft 486 kts 95°
2026-05-04 09:18 40.91739 -178.64973 35009 ft 486 kts 95°
2026-05-04 09:18 40.91133 -178.56043 35010 ft 486 kts 95°
2026-05-04 09:19 40.90526 -178.47197 35009 ft 486 kts 95°
2026-05-04 09:19 40.89912 -178.38348 35008 ft 486 kts 95°
2026-05-04 09:20 40.89259 -178.29459 35009 ft 486 kts 96°
2026-05-04 09:20 40.88607 -178.20578 35009 ft 486 kts 95°
2026-05-04 09:21 40.87965 -178.11748 35009 ft 486 kts 95°
2026-05-04 09:21 40.87314 -178.02820 35009 ft 486 kts 95°
2026-05-04 09:22 40.86663 -177.93967 35009 ft 486 kts 95°
2026-05-04 09:22 40.86008 -177.85127 35009 ft 486 kts 95°
2026-05-04 09:23 40.85345 -177.76285 35009 ft 486 kts 95°
2026-05-04 09:23 40.84671 -177.67381 35008 ft 486 kts 95°
2026-05-04 09:25 40.81920 -177.31959 35009 ft 486 kts 96°
2026-05-04 09:26 40.81219 -177.23122 35009 ft 486 kts 96°
2026-05-04 09:26 40.80512 -177.14300 35009 ft 486 kts 96°
2026-05-04 09:27 40.79795 -177.05466 35009 ft 486 kts 96°
2026-05-04 09:27 40.79066 -176.96564 35009 ft 486 kts 96°
2026-05-04 09:28 40.78336 -176.87741 35009 ft 486 kts 96°
2026-05-04 09:28 40.77598 -176.78911 35009 ft 486 kts 96°
2026-05-04 09:29 40.76855 -176.70093 35009 ft 486 kts 96°
2026-05-04 09:29 40.76099 -176.61214 35008 ft 486 kts 96°
2026-05-04 09:30 40.75342 -176.52396 35008 ft 486 kts 96°
2026-05-04 09:30 40.74579 -176.43591 35008 ft 486 kts 96°
2026-05-04 09:31 40.73808 -176.34767 35008 ft 486 kts 97°
2026-05-04 09:31 40.73028 -176.25905 35009 ft 486 kts 97°
2026-05-04 09:32 40.72244 -176.17067 35009 ft 486 kts 97°
2026-05-04 09:34 40.69034 -175.81766 35009 ft 486 kts 97°
2026-05-04 09:34 40.68216 -175.72961 35009 ft 486 kts 97°
2026-05-04 09:35 40.67391 -175.64154 35009 ft 486 kts 97°
2026-05-04 09:35 40.66559 -175.55347 35008 ft 486 kts 97°
2026-05-04 09:37 40.63165 -175.20114 35009 ft 486 kts 97°
2026-05-04 09:38 40.62300 -175.11310 35009 ft 486 kts 97°
2026-05-04 09:38 40.61427 -175.02493 35009 ft 486 kts 97°
2026-05-04 09:39 40.60545 -174.93674 35009 ft 486 kts 97°
2026-05-04 09:39 40.59661 -174.84900 35009 ft 486 kts 97°
2026-05-04 09:40 40.58770 -174.76125 35009 ft 486 kts 97°
2026-05-04 09:40 40.57872 -174.67351 35009 ft 486 kts 97°
2026-05-04 09:42 40.54204 -174.32178 35009 ft 486 kts 98°
2026-05-04 09:43 40.53276 -174.23410 35009 ft 486 kts 98°
2026-05-04 09:43 40.52340 -174.14648 35009 ft 486 kts 98°
2026-05-04 09:44 40.51389 -174.05823 35009 ft 486 kts 98°
2026-05-04 09:46 40.47542 -173.70792 35009 ft 486 kts 98°
2026-05-04 09:46 40.46566 -173.62053 35009 ft 486 kts 98°
2026-05-04 09:47 40.45575 -173.53250 35009 ft 486 kts 98°
2026-05-04 09:49 40.41578 -173.18300 35009 ft 486 kts 98°
2026-05-04 09:51 40.37983 -172.87686 35009 ft 486 kts 98°
2026-05-04 09:51 40.36944 -172.78973 35009 ft 486 kts 98°
2026-05-04 09:52 40.35892 -172.70212 35009 ft 486 kts 98°
2026-05-04 09:52 40.34841 -172.61513 35009 ft 486 kts 98°
2026-05-04 09:53 40.33777 -172.52762 35009 ft 486 kts 98°
2026-05-04 09:53 40.32713 -172.44072 35009 ft 486 kts 98°
2026-05-04 09:54 40.31635 -172.35323 35009 ft 486 kts 98°
2026-05-04 09:54 40.30562 -172.26646 35009 ft 486 kts 99°
2026-05-04 09:55 40.29473 -172.17896 35009 ft 486 kts 99°
2026-05-04 09:55 40.28380 -172.09180 35009 ft 486 kts 99°
2026-05-04 09:56 40.27283 -172.00494 35009 ft 486 kts 99°
2026-05-04 09:56 40.26171 -171.91751 35009 ft 486 kts 99°
2026-05-04 09:57 40.25061 -171.83077 35009 ft 486 kts 99°
2026-05-04 09:57 40.23943 -171.74390 35009 ft 486 kts 99°
2026-05-04 09:58 40.22812 -171.65659 35009 ft 486 kts 99°
2026-05-04 09:58 40.21681 -171.56982 35009 ft 486 kts 99°
2026-05-04 10:00 40.17090 -171.22247 35009 ft 486 kts 100°
2026-05-04 10:04 40.08789 -170.61508 35009 ft 486 kts 100°
2026-05-04 10:04 40.07581 -170.52872 35009 ft 486 kts 100°
2026-05-04 10:05 40.06360 -170.44192 35009 ft 486 kts 100°
2026-05-04 10:05 40.05139 -170.35571 35010 ft 486 kts 100°
2026-05-04 10:06 40.03909 -170.26915 35009 ft 486 kts 101°
2026-05-04 10:06 40.02670 -170.18260 35008 ft 486 kts 101°
2026-05-04 10:08 39.99339 -169.87843 35008 ft 486 kts 94°
2026-05-04 10:08 39.98847 -169.79044 35009 ft 486 kts 94°
2026-05-04 10:09 39.98342 -169.70252 35009 ft 486 kts 94°
2026-05-04 10:09 39.97829 -169.61510 35009 ft 486 kts 94°
2026-05-04 10:10 39.97306 -169.52724 35009 ft 486 kts 94°
2026-05-04 10:10 39.96778 -169.44005 35010 ft 486 kts 94°
2026-05-04 10:11 39.96241 -169.35220 35010 ft 486 kts 94°
2026-05-04 10:11 39.95701 -169.26485 35009 ft 486 kts 95°
2026-05-04 10:12 39.95149 -169.17685 35008 ft 486 kts 95°
2026-05-04 10:12 39.94595 -169.08942 35009 ft 486 kts 95°
2026-05-04 10:13 39.94030 -169.00160 35009 ft 486 kts 95°
2026-05-04 10:13 39.93464 -168.91447 35009 ft 486 kts 95°
2026-05-04 10:14 39.92887 -168.82681 35009 ft 486 kts 95°
2026-05-04 10:16 39.90520 -168.47729 35010 ft 486 kts 95°
2026-05-04 10:16 39.89910 -168.38980 35010 ft 486 kts 95°
2026-05-04 10:17 39.89264 -168.30225 35009 ft 486 kts 96°
2026-05-04 10:19 39.86710 -167.95306 35009 ft 486 kts 95°
2026-05-04 10:19 39.86060 -167.86540 35009 ft 486 kts 95°
2026-05-04 10:20 39.85408 -167.77847 35009 ft 486 kts 95°
2026-05-04 10:20 39.84744 -167.69089 35008 ft 486 kts 95°
2026-05-04 10:21 39.84079 -167.60394 35008 ft 486 kts 95°
2026-05-04 10:21 39.83405 -167.51666 35008 ft 486 kts 95°
2026-05-04 10:22 39.82381 -167.38588 35008 ft 486 kts 95°
2026-05-04 10:23 39.81692 -167.29858 35009 ft 486 kts 96°
2026-05-04 10:25 39.78865 -166.94951 35009 ft 486 kts 96°
2026-05-04 10:25 39.78145 -166.86267 35009 ft 486 kts 96°
2026-05-04 10:26 39.77416 -166.77573 35009 ft 486 kts 96°
2026-05-04 10:26 39.76677 -166.68829 35008 ft 486 kts 96°
2026-05-04 10:27 39.75937 -166.60155 35008 ft 486 kts 96°
2026-05-04 10:27 39.75185 -166.51419 35008 ft 486 kts 96°
2026-05-04 10:28 39.74432 -166.42741 35008 ft 486 kts 96°
2026-05-04 10:28 39.73669 -166.34035 35008 ft 486 kts 97°
2026-05-04 10:29 39.72900 -166.25296 35009 ft 486 kts 97°
2026-05-04 10:29 39.72130 -166.16631 35009 ft 486 kts 97°
2026-05-04 10:30 39.71347 -166.07907 35009 ft 486 kts 97°
2026-05-04 10:30 39.70560 -165.99229 35009 ft 486 kts 97°
2026-05-04 10:31 39.69765 -165.90527 35009 ft 486 kts 97°
2026-05-04 10:32 39.66932 -165.60124 35009 ft 486 kts 97°
2026-05-04 10:33 39.66107 -165.51422 35008 ft 486 kts 97°
2026-05-04 10:33 39.65280 -165.42780 35008 ft 486 kts 97°
2026-05-04 10:34 39.64444 -165.34103 35008 ft 486 kts 97°
2026-05-04 10:34 39.63599 -165.25383 35009 ft 486 kts 97°
2026-05-04 10:35 39.62754 -165.16728 35009 ft 486 kts 97°
2026-05-04 10:35 39.61900 -165.08072 35009 ft 486 kts 97°
2026-05-04 10:36 39.61034 -164.99361 35009 ft 486 kts 97°
2026-05-04 10:36 39.60168 -164.90724 35009 ft 486 kts 97°
2026-05-04 10:37 39.59291 -164.82039 35009 ft 486 kts 97°
2026-05-04 10:37 39.58407 -164.73360 35009 ft 486 kts 97°
2026-05-04 10:39 39.55270 -164.43059 35009 ft 486 kts 97°
2026-05-04 10:40 39.54359 -164.34398 35009 ft 486 kts 98°
2026-05-04 10:40 39.53447 -164.25768 35009 ft 486 kts 98°
2026-05-04 10:41 39.52527 -164.17129 35009 ft 486 kts 98°
2026-05-04 10:41 39.51592 -164.08426 35009 ft 486 kts 98°
2026-05-04 10:42 39.50656 -163.99782 35009 ft 486 kts 98°
2026-05-04 10:42 39.49718 -163.91190 35009 ft 486 kts 98°
2026-05-04 10:43 39.48765 -163.82515 35009 ft 486 kts 98°
2026-05-04 10:45 39.44904 -163.47983 35009 ft 486 kts 98°
2026-05-04 10:45 39.43919 -163.39311 35009 ft 486 kts 98°
2026-05-04 10:46 39.42931 -163.30678 35009 ft 486 kts 98°
2026-05-04 10:46 39.41942 -163.22061 35009 ft 486 kts 98°
2026-05-04 10:47 39.40946 -163.13469 35009 ft 486 kts 98°
2026-05-04 10:47 39.39936 -163.04819 35009 ft 486 kts 98°
2026-05-04 10:49 39.35847 -162.70384 35009 ft 486 kts 98°
2026-05-04 10:50 39.34813 -162.61810 35009 ft 486 kts 98°
2026-05-04 10:52 39.30601 -162.27429 35009 ft 486 kts 99°
2026-05-04 10:52 39.29534 -162.18842 35009 ft 486 kts 99°
2026-05-04 10:54 39.25194 -161.84514 35009 ft 486 kts 99°
2026-05-04 10:56 39.20757 -161.50258 35009 ft 486 kts 99°
2026-05-04 10:57 39.19630 -161.41689 35009 ft 486 kts 99°
2026-05-04 10:57 39.18500 -161.33150 35009 ft 486 kts 100°
2026-05-04 10:58 39.17364 -161.24580 35009 ft 486 kts 100°
2026-05-04 10:58 39.16220 -161.16011 35009 ft 486 kts 100°
2026-05-04 10:59 39.15070 -161.07466 35009 ft 486 kts 100°
2026-05-04 10:59 39.13914 -160.98929 35009 ft 486 kts 100°
2026-05-04 11:00 39.12751 -160.90382 35009 ft 486 kts 100°
2026-05-04 11:02 39.08035 -160.56242 35009 ft 486 kts 100°
2026-05-04 11:05 39.01358 -159.92007 35007 ft 486 kts 84°
2026-05-04 11:06 39.02366 -159.83447 35008 ft 486 kts 79°
2026-05-04 11:06 39.03595 -159.74945 35009 ft 486 kts 79°
2026-05-04 11:10 39.11960 -159.15210 35008 ft 486 kts 80°
2026-05-04 11:12 39.16591 -158.81027 35009 ft 486 kts 80°
2026-05-04 11:12 39.17732 -158.72482 35009 ft 486 kts 80°
2026-05-04 11:13 39.18868 -158.63936 35009 ft 486 kts 80°
2026-05-04 11:13 39.20003 -158.55331 35009 ft 486 kts 80°
2026-05-04 11:14 39.21128 -158.46768 35009 ft 486 kts 80°
2026-05-04 11:16 39.25554 -158.12482 35009 ft 486 kts 81°
2026-05-04 11:16 39.26645 -158.03906 35009 ft 486 kts 81°
2026-05-04 11:17 39.27732 -157.95323 35009 ft 486 kts 81°
2026-05-04 11:19 39.32014 -157.60983 35009 ft 486 kts 81°
2026-05-04 11:19 39.33069 -157.52385 35009 ft 486 kts 81°
2026-05-04 11:20 39.34117 -157.43790 35009 ft 486 kts 81°
2026-05-04 11:20 39.35160 -157.35190 35009 ft 486 kts 81°
2026-05-04 11:22 39.39262 -157.00735 35009 ft 486 kts 81°
2026-05-04 11:23 39.40267 -156.92163 35009 ft 486 kts 81°
2026-05-04 11:25 39.43756 -156.61983 35009 ft 486 kts 81°
2026-05-04 11:25 39.44738 -156.53368 35009 ft 486 kts 81°
2026-05-04 11:27 39.49073 -156.14519 35009 ft 486 kts 82°
2026-05-04 11:28 39.50025 -156.05830 35009 ft 486 kts 82°
2026-05-04 11:28 39.50960 -155.97241 35009 ft 486 kts 82°
2026-05-04 11:29 39.51894 -155.88602 35009 ft 486 kts 82°
2026-05-04 11:29 39.52826 -155.79916 35009 ft 486 kts 82°
2026-05-04 11:33 39.59137 -155.19339 35009 ft 486 kts 82°
2026-05-04 11:33 39.60012 -155.10672 35009 ft 486 kts 82°
2026-05-04 11:34 39.60881 -155.02013 35009 ft 486 kts 82°
2026-05-04 11:34 39.61742 -154.93367 35009 ft 486 kts 82°
2026-05-04 11:35 39.62605 -154.84644 35009 ft 486 kts 82°
2026-05-04 11:35 39.63456 -154.75972 35009 ft 486 kts 82°
2026-05-04 11:36 39.64299 -154.67310 35009 ft 486 kts 82°
2026-05-04 11:36 39.65136 -154.58640 35009 ft 486 kts 82°
2026-05-04 11:37 39.65966 -154.49973 35008 ft 486 kts 82°
2026-05-04 11:37 39.66791 -154.41293 35008 ft 486 kts 82°
2026-05-04 11:38 39.67608 -154.32622 35009 ft 486 kts 83°
2026-05-04 11:38 39.68419 -154.23918 35009 ft 486 kts 83°
2026-05-04 11:39 39.69222 -154.15242 35009 ft 486 kts 83°
2026-05-04 11:41 39.71994 -153.84779 35009 ft 486 kts 83°
2026-05-04 11:41 39.72770 -153.76083 35009 ft 486 kts 83°
2026-05-04 11:42 39.73541 -153.67381 35008 ft 486 kts 83°
2026-05-04 11:42 39.74303 -153.58687 35008 ft 486 kts 83°
2026-05-04 11:43 39.75060 -153.49985 35008 ft 486 kts 83°
2026-05-04 11:43 39.75810 -153.41290 35008 ft 486 kts 83°
2026-05-04 11:44 39.76555 -153.32567 35008 ft 486 kts 84°
2026-05-04 11:44 39.77289 -153.23869 35009 ft 486 kts 84°
2026-05-04 11:45 39.78017 -153.15179 35009 ft 486 kts 84°
2026-05-04 11:45 39.78743 -153.06442 35009 ft 486 kts 84°
2026-05-04 11:46 39.79459 -152.97745 35009 ft 486 kts 84°
2026-05-04 11:46 39.80171 -152.89027 35009 ft 486 kts 84°
2026-05-04 11:47 39.80876 -152.80309 35009 ft 486 kts 84°
2026-05-04 11:47 39.81574 -152.71593 35008 ft 486 kts 84°
2026-05-04 11:48 39.82270 -152.62817 35008 ft 486 kts 84°
2026-05-04 11:48 39.82955 -152.54095 35008 ft 486 kts 84°
2026-05-04 11:49 39.83634 -152.45372 35008 ft 486 kts 84°
2026-05-04 11:49 39.84306 -152.36649 35008 ft 486 kts 84°
2026-05-04 11:50 39.84967 -152.27966 35009 ft 486 kts 84°
2026-05-04 11:50 39.85627 -152.19197 35009 ft 486 kts 84°
2026-05-04 11:51 39.86280 -152.10455 35009 ft 486 kts 84°
2026-05-04 11:51 39.86926 -152.01717 35009 ft 486 kts 84°
2026-05-04 11:52 39.87566 -151.92979 35009 ft 486 kts 84°
2026-05-04 11:52 39.88198 -151.84248 35009 ft 486 kts 84°
2026-05-04 11:53 39.88824 -151.75523 35008 ft 486 kts 84°
2026-05-04 11:53 39.89443 -151.66786 35008 ft 486 kts 84°
2026-05-04 11:55 39.91860 -151.31769 35008 ft 486 kts 85°
2026-05-04 11:56 39.92445 -151.23022 35009 ft 486 kts 85°
2026-05-04 11:56 39.93024 -151.14288 35009 ft 486 kts 85°
2026-05-04 11:57 39.93596 -151.05556 35009 ft 486 kts 85°
2026-05-04 11:57 39.94164 -150.96793 35009 ft 486 kts 85°
2026-05-04 11:58 39.94726 -150.88029 35009 ft 486 kts 85°
2026-05-04 11:58 39.95279 -150.79288 35009 ft 486 kts 85°
2026-05-04 11:59 39.95828 -150.70505 35008 ft 486 kts 85°
2026-05-04 11:59 39.96370 -150.61737 35008 ft 486 kts 85°
2026-05-04 12:00 39.96905 -150.52975 35008 ft 486 kts 85°
2026-05-04 12:00 39.97432 -150.44232 35008 ft 486 kts 85°
2026-05-04 12:01 39.97954 -150.35469 35008 ft 486 kts 85°
2026-05-04 12:02 39.99731 -150.04753 35009 ft 486 kts 85°
2026-05-04 12:03 40.00192 -149.96004 35008 ft 486 kts 86°
2026-05-04 12:03 40.00555 -149.87196 35009 ft 486 kts 87°
2026-05-04 12:04 40.00906 -149.78450 35008 ft 486 kts 86°
2026-05-04 12:04 40.01260 -149.69634 35008 ft 486 kts 86°
2026-05-04 12:05 40.01609 -149.60875 35008 ft 486 kts 86°
2026-05-04 12:05 40.01956 -149.52042 35008 ft 486 kts 86°
2026-05-04 12:06 40.02294 -149.43262 35008 ft 486 kts 86°
2026-05-04 12:06 40.02626 -149.34482 35008 ft 486 kts 87°
2026-05-04 12:07 40.02950 -149.25705 35009 ft 486 kts 87°
2026-05-04 12:07 40.03268 -149.16933 35009 ft 486 kts 87°
2026-05-04 12:08 40.03579 -149.08170 35009 ft 486 kts 87°
2026-05-04 12:08 40.03885 -148.99350 35009 ft 486 kts 87°
2026-05-04 12:09 40.04183 -148.90596 35009 ft 486 kts 87°
2026-05-04 12:09 40.04475 -148.81801 35009 ft 486 kts 87°
2026-05-04 12:10 40.04760 -148.73019 35008 ft 486 kts 87°
2026-05-04 12:10 40.05040 -148.64186 35008 ft 486 kts 87°
2026-05-04 12:11 40.05313 -148.55396 35008 ft 486 kts 87°
2026-05-04 12:11 40.05577 -148.46626 35008 ft 486 kts 87°
2026-05-04 12:12 40.05835 -148.37860 35008 ft 486 kts 87°
2026-05-04 12:12 40.06088 -148.29048 35009 ft 486 kts 88°
2026-05-04 12:14 40.07029 -147.93906 35009 ft 486 kts 88°
2026-05-04 12:15 40.07250 -147.85057 35009 ft 486 kts 88°
2026-05-04 12:15 40.07461 -147.76289 35008 ft 486 kts 88°
2026-05-04 12:16 40.07666 -147.67509 35008 ft 486 kts 88°
2026-05-04 12:16 40.07866 -147.58682 35008 ft 486 kts 88°
2026-05-04 12:17 40.08058 -147.49905 35008 ft 486 kts 88°
2026-05-04 12:17 40.08244 -147.41075 35008 ft 486 kts 88°
2026-05-04 12:18 40.08424 -147.32272 35008 ft 486 kts 89°
2026-05-04 12:18 40.08595 -147.23529 35009 ft 486 kts 89°
2026-05-04 12:19 40.08762 -147.14673 35009 ft 486 kts 89°
2026-05-04 12:19 40.08920 -147.05902 35009 ft 486 kts 89°
2026-05-04 12:20 40.09072 -146.97107 35009 ft 486 kts 89°
2026-05-04 12:20 40.09218 -146.88312 35009 ft 486 kts 89°
2026-05-04 12:21 40.09357 -146.79523 35008 ft 486 kts 89°
2026-05-04 12:21 40.09489 -146.70709 35008 ft 486 kts 89°
2026-05-04 12:22 40.09615 -146.61896 35008 ft 486 kts 89°
2026-05-04 12:22 40.09734 -146.53110 35008 ft 486 kts 89°
2026-05-04 12:23 40.09847 -146.44307 35008 ft 486 kts 89°
2026-05-04 12:23 40.09953 -146.35455 35008 ft 486 kts 89°
2026-05-04 12:24 40.10062 -146.26678 35008 ft 486 kts 89°
2026-05-04 12:24 40.10185 -146.17909 35008 ft 486 kts 89°
2026-05-04 12:25 40.10287 -146.09058 35009 ft 486 kts 89°
2026-05-04 12:25 40.10371 -146.00275 35009 ft 486 kts 89°
2026-05-04 12:26 40.10445 -145.91467 35009 ft 486 kts 89°
2026-05-04 12:26 40.10512 -145.82678 35009 ft 486 kts 89°
2026-05-04 12:27 40.10572 -145.73822 35009 ft 486 kts 89°
2026-05-04 12:27 40.10624 -145.65027 35009 ft 486 kts 89°
2026-05-04 12:28 40.10670 -145.56227 35009 ft 486 kts 89°
2026-05-04 12:28 40.10709 -145.47443 35009 ft 486 kts 89°
2026-05-04 12:29 40.10742 -145.38646 35009 ft 486 kts 89°
2026-05-04 12:29 40.10768 -145.29805 35009 ft 486 kts 90°
2026-05-04 12:30 40.10786 -145.21048 35008 ft 486 kts 90°
2026-05-04 12:30 40.10799 -145.12221 35009 ft 486 kts 90°
2026-05-04 12:31 40.10805 -145.03420 35009 ft 486 kts 90°
2026-05-04 12:31 40.10804 -144.94603 35009 ft 486 kts 90°
2026-05-04 12:32 40.10790 -144.81367 35009 ft 486 kts 90°
2026-05-04 12:33 40.10773 -144.72586 35009 ft 486 kts 90°
2026-05-04 12:33 40.10749 -144.63774 35009 ft 486 kts 90°
2026-05-04 12:34 40.10718 -144.54965 35009 ft 486 kts 90°
2026-05-04 12:34 40.10681 -144.46143 35009 ft 486 kts 90°
2026-05-04 12:35 40.10636 -144.37323 35009 ft 486 kts 90°
2026-05-04 12:35 40.10586 -144.28546 35009 ft 486 kts 90°
2026-05-04 12:36 40.10528 -144.19716 35008 ft 486 kts 90°
2026-05-04 12:36 40.10464 -144.10913 35009 ft 486 kts 90°
2026-05-04 12:37 40.10393 -144.02107 35009 ft 486 kts 90°
2026-05-04 12:37 40.10316 -143.93320 35009 ft 486 kts 90°
2026-05-04 12:38 40.10231 -143.84520 35009 ft 486 kts 90°
2026-05-04 12:38 40.10141 -143.75716 35009 ft 486 kts 90°
2026-05-04 12:39 40.10043 -143.66914 35009 ft 486 kts 90°
2026-05-04 12:39 40.09939 -143.58115 35009 ft 486 kts 90°
2026-05-04 12:40 40.09828 -143.49281 35009 ft 486 kts 90°
2026-05-04 12:40 40.09711 -143.40477 35009 ft 486 kts 90°
2026-05-04 12:41 40.09587 -143.31663 35009 ft 486 kts 91°
2026-05-04 12:41 40.09456 -143.22853 35008 ft 486 kts 91°
2026-05-04 12:42 40.09319 -143.14090 35008 ft 486 kts 91°
2026-05-04 12:42 40.09174 -143.05246 35009 ft 486 kts 91°
2026-05-04 12:43 40.09023 -142.96445 35009 ft 486 kts 91°
2026-05-04 12:43 40.08866 -142.87662 35009 ft 486 kts 91°
2026-05-04 12:44 40.08702 -142.78857 35009 ft 486 kts 91°
2026-05-04 12:44 40.08531 -142.70056 35009 ft 486 kts 91°
2026-05-04 12:45 40.08354 -142.61276 35009 ft 486 kts 91°
2026-05-04 12:45 40.08170 -142.52475 35009 ft 486 kts 91°
2026-05-04 12:46 40.07979 -142.43681 35009 ft 486 kts 91°
2026-05-04 12:46 40.07782 -142.34888 35010 ft 486 kts 92°
2026-05-04 12:47 40.07578 -142.26088 35009 ft 486 kts 92°
2026-05-04 12:47 40.07367 -142.17273 35008 ft 486 kts 92°
2026-05-04 12:48 40.07150 -142.08485 35009 ft 486 kts 92°
2026-05-04 12:48 40.06927 -141.99705 35009 ft 486 kts 92°
2026-05-04 12:49 40.06696 -141.90916 35009 ft 486 kts 92°
2026-05-04 12:49 40.06459 -141.82126 35009 ft 486 kts 92°
2026-05-04 12:50 40.06215 -141.73331 35009 ft 486 kts 92°
2026-05-04 12:50 40.05963 -141.64494 35009 ft 486 kts 92°
2026-05-04 12:51 40.05706 -141.55707 35009 ft 486 kts 92°
2026-05-04 12:51 40.05442 -141.46924 35009 ft 486 kts 92°
2026-05-04 12:52 40.05172 -141.38142 35010 ft 486 kts 92°
2026-05-04 12:52 40.04894 -141.29332 35009 ft 486 kts 92°
2026-05-04 12:53 40.04612 -141.20584 35008 ft 486 kts 92°
2026-05-04 12:53 40.04321 -141.11784 35008 ft 486 kts 92°
2026-05-04 12:54 40.04024 -141.02983 35009 ft 486 kts 92°
2026-05-04 12:54 40.03719 -140.94188 35009 ft 486 kts 92°
2026-05-04 12:55 40.03409 -140.85399 35009 ft 486 kts 92°
2026-05-04 12:55 40.03091 -140.76614 35009 ft 486 kts 92°
2026-05-04 12:56 40.02770 -140.67896 35009 ft 486 kts 92°
2026-05-04 12:56 40.02439 -140.59109 35009 ft 486 kts 92°
2026-05-04 12:57 40.02101 -140.50328 35009 ft 486 kts 92°
2026-05-04 12:57 40.01757 -140.41533 35010 ft 486 kts 92°
2026-05-04 12:58 40.01405 -140.32752 35009 ft 486 kts 93°
2026-05-04 12:58 40.01046 -140.23930 35008 ft 486 kts 93°
2026-05-04 12:59 40.00680 -140.15157 35008 ft 486 kts 93°
2026-05-04 12:59 40.00306 -140.06416 35009 ft 486 kts 93°
2026-05-04 13:00 39.99916 -139.97646 35009 ft 486 kts 94°
2026-05-04 13:00 39.99432 -139.88861 35009 ft 486 kts 94°
2026-05-04 13:01 39.98922 -139.80064 35009 ft 486 kts 94°
2026-05-04 13:01 39.98411 -139.71321 35009 ft 486 kts 94°
2026-05-04 13:02 39.97895 -139.62589 35009 ft 486 kts 94°
2026-05-04 13:02 39.97370 -139.53775 35009 ft 486 kts 94°
2026-05-04 13:03 39.96841 -139.45021 35010 ft 486 kts 94°
2026-05-04 13:03 39.96307 -139.36281 35010 ft 486 kts 94°
2026-05-04 13:04 39.95764 -139.27513 35009 ft 486 kts 95°
2026-05-04 13:04 39.95219 -139.18779 35008 ft 486 kts 95°
2026-05-04 13:05 39.94662 -139.09994 35008 ft 486 kts 95°
2026-05-04 13:05 39.94101 -139.01263 35009 ft 486 kts 95°
2026-05-04 13:06 39.93534 -138.92520 35009 ft 486 kts 95°
2026-05-04 13:06 39.92956 -138.83730 35009 ft 486 kts 95°
2026-05-04 13:07 39.92377 -138.75021 35009 ft 486 kts 95°
2026-05-04 13:07 39.91787 -138.66240 35009 ft 486 kts 95°
2026-05-04 13:08 39.91193 -138.57513 35009 ft 486 kts 95°
2026-05-04 13:08 39.90590 -138.48734 35010 ft 486 kts 95°
2026-05-04 13:09 39.89983 -138.40007 35010 ft 486 kts 95°
2026-05-04 13:09 39.89341 -138.31262 35009 ft 486 kts 96°
2026-05-04 13:10 39.88700 -138.22542 35009 ft 486 kts 95°
2026-05-04 13:10 39.88065 -138.13811 35009 ft 486 kts 95°
2026-05-04 13:11 39.87427 -138.05061 35009 ft 486 kts 95°
2026-05-04 13:11 39.86785 -137.96326 35009 ft 486 kts 95°
2026-05-04 13:12 39.86137 -137.87595 35009 ft 486 kts 95°
2026-05-04 13:12 39.85484 -137.78865 35009 ft 486 kts 95°
2026-05-04 13:13 39.84822 -137.70129 35008 ft 486 kts 95°
2026-05-04 13:13 39.84153 -137.61366 35008 ft 486 kts 95°
2026-05-04 13:14 39.83481 -137.52655 35008 ft 486 kts 95°
2026-05-04 13:14 39.82801 -137.43941 35008 ft 486 kts 95°
2026-05-04 13:15 39.82116 -137.35236 35008 ft 486 kts 95°
2026-05-04 13:15 39.81422 -137.26480 35009 ft 486 kts 96°
2026-05-04 13:16 39.80725 -137.17763 35009 ft 486 kts 96°
2026-05-04 13:16 39.80018 -137.09021 35009 ft 486 kts 96°
2026-05-04 13:17 39.79306 -137.00314 35009 ft 486 kts 96°
2026-05-04 13:17 39.78588 -136.91618 35009 ft 486 kts 96°
2026-05-04 13:18 39.77864 -136.82930 35009 ft 486 kts 96°
2026-05-04 13:18 39.77128 -136.74167 35009 ft 486 kts 96°
2026-05-04 13:19 39.76391 -136.65483 35008 ft 486 kts 96°
2026-05-04 13:19 39.75642 -136.56738 35008 ft 486 kts 96°
2026-05-04 13:20 39.74894 -136.48079 35008 ft 486 kts 96°
2026-05-04 13:20 39.74134 -136.39357 35008 ft 486 kts 96°
2026-05-04 13:21 39.73369 -136.30640 35009 ft 486 kts 96°
2026-05-04 13:21 39.72602 -136.21956 35009 ft 486 kts 96°
2026-05-04 13:22 39.71827 -136.13263 35009 ft 486 kts 97°
2026-05-04 13:22 39.71041 -136.04541 35009 ft 486 kts 97°
2026-05-04 13:23 39.70251 -135.95853 35009 ft 486 kts 97°
2026-05-04 13:23 39.69453 -135.87155 35009 ft 486 kts 97°
2026-05-04 13:24 39.68649 -135.78471 35009 ft 486 kts 97°
2026-05-04 13:24 39.67834 -135.69730 35009 ft 486 kts 97°
2026-05-04 13:25 39.66611 -135.56749 35008 ft 486 kts 97°
2026-05-04 13:25 39.65780 -135.48018 35008 ft 486 kts 97°
2026-05-04 13:26 39.64949 -135.39363 35008 ft 486 kts 97°
2026-05-04 13:26 39.64108 -135.30650 35009 ft 486 kts 97°
2026-05-04 13:27 39.63267 -135.22003 35009 ft 486 kts 97°
2026-05-04 13:27 39.62420 -135.13354 35009 ft 486 kts 97°
2026-05-04 13:28 39.61558 -135.04648 35009 ft 486 kts 97°
2026-05-04 13:28 39.60696 -134.96013 35009 ft 486 kts 97°
2026-05-04 13:29 39.59822 -134.87321 35009 ft 486 kts 97°
2026-05-04 13:29 39.58948 -134.78697 35009 ft 486 kts 97°
2026-05-04 13:30 39.58062 -134.70016 35009 ft 486 kts 97°
2026-05-04 13:30 39.57170 -134.61348 35009 ft 486 kts 97°
2026-05-04 13:31 39.56276 -134.52724 35009 ft 486 kts 97°
2026-05-04 13:31 39.55371 -134.44058 35009 ft 486 kts 97°
2026-05-04 13:32 39.54462 -134.35411 35009 ft 486 kts 97°
2026-05-04 13:32 39.53550 -134.26769 35009 ft 486 kts 98°
2026-05-04 13:33 39.52633 -134.18156 35009 ft 486 kts 98°
2026-05-04 13:33 39.51705 -134.09514 35009 ft 486 kts 98°
2026-05-04 13:34 39.50771 -134.00882 35009 ft 486 kts 98°
2026-05-04 13:34 39.49830 -133.92242 35009 ft 486 kts 98°
2026-05-04 13:35 39.48401 -133.79250 35009 ft 486 kts 98°
2026-05-04 13:36 39.47443 -133.70613 35009 ft 486 kts 98°
2026-05-04 13:36 39.46485 -133.62036 35009 ft 486 kts 98°
2026-05-04 13:37 39.45512 -133.53391 35009 ft 486 kts 98°
2026-05-04 13:37 39.44534 -133.44751 35009 ft 486 kts 98°
2026-05-04 13:38 39.43553 -133.36150 35009 ft 486 kts 98°
2026-05-04 13:38 39.42563 -133.27499 35009 ft 486 kts 98°
2026-05-04 13:39 39.41568 -133.18869 35009 ft 486 kts 98°
2026-05-04 13:39 39.40571 -133.10284 35009 ft 486 kts 98°
2026-05-04 13:40 39.39559 -133.01640 35009 ft 486 kts 98°
2026-05-04 13:40 39.38543 -132.93016 35009 ft 486 kts 98°
2026-05-04 13:41 39.37523 -132.84424 35009 ft 486 kts 98°
2026-05-04 13:41 39.36495 -132.75816 35009 ft 486 kts 98°
2026-05-04 13:42 39.34943 -132.62918 35009 ft 486 kts 98°
2026-05-04 13:42 39.33893 -132.54266 35009 ft 486 kts 98°
2026-05-04 13:43 39.32847 -132.45699 35009 ft 486 kts 98°
2026-05-04 13:43 39.31790 -132.37106 35009 ft 486 kts 98°
2026-05-04 13:44 39.30724 -132.28471 35009 ft 486 kts 99°
2026-05-04 13:44 39.29657 -132.19871 35009 ft 486 kts 99°
2026-05-04 13:45 39.28584 -132.11290 35009 ft 486 kts 99°
2026-05-04 13:45 39.27503 -132.02708 35009 ft 486 kts 99°
2026-05-04 13:46 39.26416 -131.94132 35009 ft 486 kts 99°
2026-05-04 13:46 39.25323 -131.85562 35009 ft 486 kts 99°
2026-05-04 13:47 39.24223 -131.76988 35009 ft 486 kts 99°
2026-05-04 13:47 39.23109 -131.68361 35009 ft 486 kts 99°
2026-05-04 13:48 39.21997 -131.59793 35009 ft 486 kts 99°
2026-05-04 13:48 39.20878 -131.51224 35009 ft 486 kts 99°
2026-05-04 13:49 39.19751 -131.42653 35009 ft 486 kts 99°
2026-05-04 13:49 39.18626 -131.34142 35009 ft 486 kts 100°
2026-05-04 13:50 39.17488 -131.25555 35009 ft 486 kts 100°
2026-05-04 13:50 39.16349 -131.17018 35008 ft 486 kts 100°
2026-05-04 13:51 39.15194 -131.08426 35009 ft 486 kts 100°
2026-05-04 13:51 39.14036 -130.99867 35009 ft 486 kts 100°
2026-05-04 13:52 39.12288 -130.87039 35009 ft 486 kts 100°
2026-05-04 13:53 39.11111 -130.78465 35009 ft 486 kts 100°
2026-05-04 13:53 39.09934 -130.69936 35009 ft 486 kts 100°
2026-05-04 13:54 39.08156 -130.57143 35009 ft 486 kts 100°
2026-05-04 13:55 39.06359 -130.44325 35009 ft 486 kts 100°
2026-05-04 13:55 39.04552 -130.31541 35009 ft 486 kts 100°
2026-05-04 13:56 39.03335 -130.22972 35008 ft 486 kts 100°
2026-05-04 13:57 39.01499 -130.10181 35009 ft 486 kts 101°
2026-05-04 13:58 38.98950 -129.93175 35009 ft 486 kts 102°
2026-05-04 13:58 38.96841 -129.80479 35009 ft 486 kts 102°
2026-05-04 13:59 38.95426 -129.71991 35009 ft 486 kts 102°
2026-05-04 14:00 38.93306 -129.59308 35009 ft 486 kts 102°
2026-05-04 14:00 38.91165 -129.46582 35010 ft 486 kts 102°
2026-05-04 14:01 38.89736 -129.38142 35009 ft 486 kts 102°
2026-05-04 14:02 38.87545 -129.25488 35009 ft 486 kts 102°
2026-05-04 14:02 38.86087 -129.17026 35009 ft 486 kts 102°
2026-05-04 14:03 38.84629 -129.08560 35009 ft 486 kts 102°
2026-05-04 14:03 38.83173 -129.00139 35009 ft 486 kts 102°
2026-05-04 14:04 38.80993 -128.87595 35009 ft 486 kts 102°
2026-05-04 14:04 38.79523 -128.79182 35009 ft 486 kts 102°
2026-05-04 14:05 38.77298 -128.66513 35008 ft 486 kts 102°
2026-05-04 14:06 38.75805 -128.58063 35008 ft 486 kts 102°
2026-05-04 14:06 38.74316 -128.49678 35008 ft 486 kts 102°
2026-05-04 14:07 38.72810 -128.41231 35008 ft 486 kts 102°
2026-05-04 14:07 38.71305 -128.32822 35008 ft 486 kts 103°
2026-05-04 14:08 38.69798 -128.24411 35009 ft 486 kts 103°
2026-05-04 14:08 38.68285 -128.16019 35009 ft 486 kts 103°
2026-05-04 14:09 38.65994 -128.03398 35009 ft 486 kts 103°
2026-05-04 14:10 38.63694 -127.90813 35009 ft 486 kts 103°
2026-05-04 14:10 38.62147 -127.82401 35009 ft 486 kts 103°
2026-05-04 14:11 38.60601 -127.74027 35009 ft 486 kts 103°
2026-05-04 14:11 38.58262 -127.61425 35009 ft 486 kts 103°
2026-05-04 14:12 38.56695 -127.53028 35008 ft 486 kts 103°
2026-05-04 14:13 38.54338 -127.40466 35009 ft 486 kts 103°
2026-05-04 14:13 38.52768 -127.32137 35009 ft 486 kts 103°
2026-05-04 14:14 38.51191 -127.23781 35009 ft 486 kts 103°
2026-05-04 14:14 38.48801 -127.11221 35009 ft 486 kts 104°
2026-05-04 14:15 38.45053 -126.94703 35008 ft 486 kts 111°
2026-05-04 14:16 38.41393 -126.82683 35009 ft 486 kts 111°
2026-05-04 14:17 38.37722 -126.70683 35009 ft 486 kts 111°
2026-05-04 14:18 38.34053 -126.58716 35009 ft 486 kts 111°
2026-05-04 14:19 38.29123 -126.42712 35009 ft 486 kts 111°
2026-05-04 14:19 38.26666 -126.34766 35009 ft 486 kts 111°
2026-05-04 14:20 38.24247 -126.26945 35009 ft 486 kts 111°
2026-05-04 14:20 38.21782 -126.19001 35009 ft 486 kts 111°
2026-05-04 14:21 38.18053 -126.07049 35009 ft 486 kts 111°
2026-05-04 14:21 38.15564 -125.99107 35009 ft 486 kts 111°
2026-05-04 14:22 38.13063 -125.91147 35009 ft 486 kts 111°
2026-05-04 14:22 38.10557 -125.83197 35009 ft 486 kts 111°
2026-05-04 14:23 38.06787 -125.71278 35009 ft 486 kts 111°
2026-05-04 14:24 38.04266 -125.63337 35009 ft 486 kts 111°
2026-05-04 14:24 38.01754 -125.55453 35009 ft 486 kts 111°
2026-05-04 14:25 37.99330 -125.47443 35008 ft 486 kts 108°
2026-05-04 14:25 37.96077 -125.35310 35010 ft 486 kts 108°
2026-05-04 14:26 37.93905 -125.27211 35009 ft 486 kts 109°
2026-05-04 14:26 37.91734 -125.19151 35008 ft 486 kts 109°
2026-05-04 14:27 37.89554 -125.11112 35009 ft 486 kts 109°
2026-05-04 14:27 37.87318 -125.03007 35009 ft 486 kts 109°
2026-05-04 14:28 37.85099 -124.94951 35009 ft 486 kts 109°
2026-05-04 14:28 37.82890 -124.86907 35009 ft 486 kts 109°
2026-05-04 14:29 37.78465 -124.70835 35008 ft 486 kts 109°
2026-05-04 14:30 37.76235 -124.62769 35008 ft 486 kts 109°
2026-05-04 14:31 37.72898 -124.50739 35008 ft 486 kts 109°
2026-05-04 14:32 37.68421 -124.34690 35008 ft 486 kts 109°
2026-05-04 14:32 37.66284 -124.27033 35009 ft 486 kts 109°
2026-05-04 14:33 37.64039 -124.19020 35009 ft 486 kts 109°
2026-05-04 14:33 37.61793 -124.11043 35009 ft 486 kts 109°
2026-05-04 14:34 37.59523 -124.03011 35009 ft 486 kts 109°
2026-05-04 14:34 37.57255 -123.95013 35009 ft 486 kts 109°
2026-05-04 14:35 37.54977 -123.87002 35009 ft 486 kts 109°
2026-05-04 14:35 37.52705 -123.79036 35009 ft 486 kts 109°
2026-05-04 14:36 37.50410 -123.71014 35009 ft 486 kts 109°
2026-05-04 14:36 37.47722 -123.61648 35009 ft 486 kts 109°
2026-05-04 14:37 37.38509 -123.29789 35010 ft 486 kts 110°
2026-05-04 14:37 37.29219 -122.97993 35011 ft 486 kts 110°
2026-05-04 14:38 37.16611 -122.68116 35021 ft 486 kts 127°
2026-05-04 14:38 36.87029 -122.17534 35010 ft 486 kts 124°
2026-05-04 14:39 36.55992 -121.62901 35007 ft 486 kts 126°
2026-05-04 14:39 36.29473 -121.16977 35009 ft 486 kts 126°
2026-05-04 14:40 36.07308 -120.79160 35014 ft 486 kts 126°
2026-05-04 14:40 36.03320 -120.72396 35010 ft 486 kts 126°
2026-05-04 14:41 35.90349 -120.50491 35011 ft 486 kts 126°
2026-05-04 14:42 35.56137 -120.01166 35010 ft 486 kts 149°
2026-05-04 14:42 35.38205 -119.89672 35012 ft 486 kts 148°
2026-05-04 14:43 35.33331 -119.85854 34262 ft 489 kts 147°
2026-05-04 14:43 35.27727 -119.81365 33203 ft 485 kts 145°
2026-05-04 14:43 35.22335 -119.76486 32291 ft 480 kts 142°
2026-05-04 14:43 35.17076 -119.71484 31391 ft 481 kts 142°
2026-05-04 14:44 35.11811 -119.66479 30461 ft 483 kts 142°
2026-05-04 14:44 35.06515 -119.61506 29076 ft 485 kts 142°
2026-05-04 14:44 35.01229 -119.56591 27883 ft 480 kts 142°
2026-05-04 14:44 34.95958 -119.51711 26983 ft 472 kts 142°
2026-05-04 14:45 34.90778 -119.46925 26330 ft 462 kts 142°
2026-05-04 14:45 34.85884 -119.42514 25448 ft 451 kts 143°
2026-05-04 14:45 34.80947 -119.38159 24701 ft 422 kts 143°
2026-05-04 14:45 34.76483 -119.34210 24251 ft 392 kts 144°
2026-05-04 14:46 34.72411 -119.30589 23700 ft 369 kts 144°
2026-05-04 14:46 34.68353 -119.27038 23037 ft 354 kts 144°
2026-05-04 14:46 34.64366 -119.23573 22260 ft 348 kts 144°
2026-05-04 14:46 34.60527 -119.20260 20984 ft 341 kts 145°
2026-05-04 14:47 34.56676 -119.16946 19483 ft 335 kts 145°
2026-05-04 14:47 34.52956 -119.13688 18776 ft 328 kts 144°
2026-05-04 14:47 34.48438 -119.09672 18069 ft 327 kts 144°
2026-05-04 14:47 34.46611 -119.08048 17750 ft 325 kts 144°
2026-05-04 14:48 34.44800 -119.06444 17274 ft 323 kts 144°
2026-05-04 14:48 34.38671 -119.01086 16138 ft 318 kts 144°
2026-05-04 14:48 34.31484 -118.94865 15787 ft 316 kts 143°
2026-05-04 14:48 34.24581 -118.88557 14873 ft 312 kts 142°
2026-05-04 14:49 34.17695 -118.82172 13668 ft 308 kts 142°
2026-05-04 14:49 34.11212 -118.75633 12586 ft 304 kts 137°
2026-05-04 14:49 34.05090 -118.68646 11514 ft 300 kts 137°
2026-05-04 14:49 34.02392 -118.65364 10969 ft 296 kts 119°
2026-05-04 14:50 34.01854 -118.63016 10649 ft 292 kts 90°
2026-05-04 14:50 34.01930 -118.60583 10388 ft 288 kts 87°
2026-05-04 14:50 34.01979 -118.58211 10129 ft 284 kts 90°
2026-05-04 14:50 34.01908 -118.55862 9904 ft 279 kts 93°
2026-05-04 14:51 34.01754 -118.53552 9663 ft 275 kts 95°
2026-05-04 14:51 34.01559 -118.51263 9417 ft 271 kts 96°
2026-05-04 14:51 34.01353 -118.49035 9178 ft 268 kts 96°
2026-05-04 14:51 34.01146 -118.46790 8936 ft 264 kts 93°
2026-05-04 14:52 34.01215 -118.44599 8692 ft 261 kts 81°
2026-05-04 14:52 34.01545 -118.42487 8465 ft 257 kts 78°
2026-05-04 14:52 34.01925 -118.40381 8238 ft 253 kts 77°
2026-05-04 14:52 34.02298 -118.38318 8016 ft 250 kts 77°
2026-05-04 14:53 34.02654 -118.36295 7799 ft 247 kts 79°
2026-05-04 14:53 34.02909 -118.34260 7608 ft 242 kts 83°
2026-05-04 14:53 34.03112 -118.32278 7418 ft 238 kts 83°
2026-05-04 14:53 34.03306 -118.30299 7209 ft 234 kts 83°
2026-05-04 14:54 34.03269 -118.28383 6964 ft 233 kts 106°
2026-05-04 14:54 34.02506 -118.26686 6691 ft 231 kts 134°
2026-05-04 14:54 34.00684 -118.24585 6275 ft 230 kts 133°
2026-05-04 14:54 33.98747 -118.21581 5750 ft 229 kts 123°
2026-05-04 14:55 33.97046 -118.18315 5268 ft 228 kts 122°
2026-05-04 14:55 33.94954 -118.15562 4729 ft 226 kts 153°
2026-05-04 14:55 33.92181 -118.14761 4229 ft 224 kts 194°
2026-05-04 14:55 33.90374 -118.16350 3799 ft 223 kts 236°
2026-05-04 14:56 33.89626 -118.19817 3572 ft 220 kts 280°
2026-05-04 14:56 33.91027 -118.23036 3607 ft 220 kts 321°
2026-05-04 14:56 33.93881 -118.24416 3504 ft 209 kts 356°
2026-05-04 14:56 33.95346 -118.24589 3111 ft 215 kts 341°
2026-05-04 14:57 33.96505 -118.25569 3003 ft 199 kts 303°
2026-05-04 14:57 33.96885 -118.27049 2976 ft 180 kts 263°
2026-05-04 14:57 33.96410 -118.28332 2967 ft 159 kts 227°
2026-05-04 14:57 33.95679 -118.29302 2995 ft 157 kts 233°
2026-05-04 14:58 33.95095 -118.30415 3003 ft 157 kts 245°
2026-05-04 14:58 33.94665 -118.31683 2221 ft 199 kts 251°
2026-05-04 14:58 33.94269 -118.33408 1339 ft 217 kts 256°
2026-05-04 14:58 33.94074 -118.34589 1215 ft 217 kts 260°
2026-05-04 14:59 33.93850 -118.37042 313 ft 219 kts 264°
2026-05-04 14:59 33.93666 -118.38786 190 ft 194 kts 263°
2026-05-04 14:59 33.93501 -118.41119 137 ft 63 kts 300°
2026-05-04 15:00 33.93769 -118.41273 136 ft 35 kts 10°
2026-05-04 15:00 33.93927 -118.41120 136 ft 26 kts 65°
2026-05-04 15:00 33.93941 -118.41061 136 ft 0 kts 84°
2026-05-04 15:01 33.93942 -118.41058 136 ft 0 kts 84°